Wind_Speed
3 3 2 3 3 5 5 5 5 6 6 7 7 8 9 9 9 9 9 10 10 11 12 13 14 14 14 14 15 15 15 15 15 15 14 14 14 14 14 14 14 14 13
3 3 3 3 3 4 5 5 6 6 7 7 7 8 9 9 10 10 10 11 11 12 13 14 15 15 15 16 16 16 16 16 16 16 15 15 15 14 15 15 15 15 14
3 3 3 3 4 4 5 6 6 7 7 7 8 9 9 10 11 11 11 12 12 13 13 14 15 16 16 17 17 17 17 17 17 16 16 16 16 15 15 15 15 15 15
3 4 4 4 5 5 6 6 7 7 8 9 9 10 10 11 12 12 13 13 13 14 15 16 16 17 17 18 18 18 18 18 18 18 18 18 17 17 16 16 16 16 16
5 5 5 6 6 6 6 7 8 8 9 10 10 11 12 13 13 13 14 14 14 15 16 17 17 18 18 18 19 19 19 19 19 19 19 19 19 18 18 18 17 17 17
6 6 6 6 6 7 7 8 9 9 10 11 12 12 13 14 14 14 15 15 15 16 17 17 18 18 19 19 19 20 20 21 21 20 20 20 20 20 20 19 19 19 18
8 8 8 8 9 9 9 9 10 11 11 12 13 14 15 15 16 16 16 16 17 18 18 19 19 19 20 20 20 21 22 22 22 22 21 21 21 21 21 20 20 20 20
10 10 10 11 11 11 10 11 11 13 13 15 15 15 16 16 17 17 18 18 19 20 20 21 21 20 21 22 22 22 23 23 23 22 22 22 22 22 22 21 21 21 21
13 12 12 12 12 12 12 13 13 14 15 16 16 17 17 18 18 19 20 19 20 21 21 22 22 22 22 23 24 24 24 24 24 23 23 24 24 23 23 23 23 23 22
15 15 15 14 14 13 14 14 15 16 16 17 18 18 19 20 20 21 21 21 22 23 23 24 24 24 24 24 25 25 25 25 25 25 25 24 24 24 24 24 24 24 24
17 17 18 18 17 17 17 17 18 18 18 19 20 20 21 22 23 23 23 24 24 25 25 26 26 26 26 25 25 25 25 26 25 25 25 25 25 25 25 25 25 25 25
19 19 19 20 20 20 20 20 20 20 21 22 22 23 23 24 24 24 25 26 27 27 27 27 27 27 28 27 27 26 26 27 26 26 26 26 26 26 26 25 26 26 26
21 21 22 22 22 22 22 22 22 23 23 24 25 25 26 26 26 27 27 28 28 28 27 28 28 28 29 29 28 28 27 27 27 27 27 27 27 27 27 27 27 27 27
23 23 24 24 24 24 24 24 24 25 26 27 28 28 28 27 28 28 29 29 29 29 29 29 29 29 30 30 29 29 29 29 29 29 29 29 29 29 29 28 28 28 28
26 26 26 26 27 26 26 27 28 28 29 30 30 30 30 30 30 30 31 30 31 31 31 31 31 30 30 31 31 31 31 31 32 32 31 31 30 30 30 30 30 29 29
29 29 29 29 29 29 29 30 30 31 31 32 32 32 31 31 32 32 33 33 32 32 32 32 32 31 31 32 32 32 33 34 34 34 33 33 33 32 32 31 31 31 31
30 30 31 31 31 32 32 32 32 32 33 34 33 33 33 33 34 34 34 34 34 34 34 33 33 33 33 34 34 34 35 35 35 35 34 34 34 33 33 33 32 32 32
32 32 33 33 33 34 34 34 34 35 35 35 34 34 34 35 35 35 36 36 36 35 35 35 35 35 35 35 35 36 36 36 35 35 35 34 34 34 34 34 33 33 33
34 34 34 34 35 35 36 36 36 36 36 36 36 36 37 36 36 36 37 37 37 37 36 36 36 37 37 37 37 36 36 36 35 34 34 34 34 34 33 34 34 33 33
36 36 35 36 36 37 37 37 38 38 37 37 38 38 38 38 38 38 37 37 37 37 37 37 37 38 39 38 36 36 36 35 35 34 34 34 33 34 34 34 34 34 34
37 37 37 37 38 37 38 38 39 39 40 40 39 39 39 38 38 39 38 38 38 37 37 38 38 38 38 38 37 36 35 35 35 35 35 34 34 34 34 34 34 34 35
37 38 38 39 38 38 39 39 40 40 41 41 41 41 40 40 40 40 39 39 38 38 38 38 38 39 39 38 37 36 36 36 36 36 35 35 34 34 34 34 34 34 34
37 38 39 39 40 40 41 41 41 41 41 42 42 42 42 41 40 40 39 39 39 39 39 39 39 39 38 39 38 37 36 36 36 36 36 35 35 35 35 35 34 35 35
37 38 39 39 39 40 40 40 41 42 42 43 43 43 42 41 41 41 41 40 40 40 40 40 40 40 39 38 38 38 37 36 36 35 36 35 35 35 35 35 35 36 35
37 38 38 38 39 40 40 40 41 42 42 42 42 42 41 41 42 41 41 41 41 41 41 41 40 39 38 38 38 37 36 36 36 36 36 35 35 35 35 34 34 35 34
35 37 38 39 39 40 40 40 41 42 42 42 42 42 42 42 42 42 42 42 41 40 39 38 38 37 37 37 37 36 35 35 35 35 35 35 35 35 35 35 35 34 34
Wind_Direction
7 5 8 18 20 21 17 12 8 0 353 351 353 353 351 349 346 347 346 344 342 340 339 337 335 333 333 333 332 330 328 327 325 323 320 317 316 315 311 306 304 300 299
348 346 341 339 348 357 2 359 353 349 346 343 342 343 344 345 343 342 339 336 335 335 335 333 332 330 330 330 329 327 325 323 323 321 320 318 316 313 311 310 306 303 301
327 325 321 319 325 333 337 341 343 341 339 336 334 335 337 339 338 337 334 331 330 330 331 331 330 327 325 326 326 325 322 319 320 320 319 317 316 313 311 311 308 304 301
301 306 302 301 309 320 325 328 331 335 336 334 329 328 329 330 330 331 331 330 329 329 329 328 327 325 323 322 322 323 321 319 317 317 317 316 314 312 310 308 305 302 299
281 288 292 289 294 305 317 321 322 325 330 331 329 325 323 323 323 324 323 324 324 325 326 327 327 324 322 323 322 321 320 317 316 315 313 312 311 309 307 306 305 303 300
271 276 284 285 292 297 305 309 312 317 319 321 323 322 322 321 321 321 322 321 322 323 324 324 324 325 322 321 320 320 318 316 315 313 311 310 307 305 304 303 303 303 300
274 276 279 282 288 296 300 303 306 308 309 312 315 316 319 317 315 318 320 319 319 318 319 320 320 320 319 318 317 317 315 314 313 312 311 311 308 305 304 303 302 300 299
276 274 277 280 286 289 294 300 303 304 304 306 310 313 316 316 314 314 316 316 316 316 316 316 316 316 316 316 316 315 313 312 312 311 311 309 308 306 303 301 301 302 301
273 274 277 280 282 283 289 297 301 303 304 306 307 311 314 314 312 312 313 313 313 313 313 314 315 314 313 313 313 313 312 310 309 308 309 308 307 306 303 301 301 302 302
266 271 275 277 281 281 287 294 299 300 302 304 306 309 310 312 311 309 309 310 311 312 312 313 313 312 312 312 312 312 311 310 309 308 308 308 307 305 303 302 300 300 300
265 268 273 276 280 283 286 290 294 296 299 301 303 304 306 308 308 306 306 308 308 309 310 311 311 311 309 310 310 310 310 310 310 309 308 308 307 306 304 302 301 300 300
265 267 271 274 277 282 285 287 290 293 295 297 300 301 302 302 304 304 306 307 308 308 308 308 308 308 309 308 308 309 309 308 308 308 307 306 306 306 305 302 301 300 301
266 267 270 274 277 280 284 286 288 291 293 295 297 300 300 298 298 302 304 305 306 306 307 308 307 307 307 308 307 307 307 306 305 304 304 305 305 304 304 303 301 300 300
267 268 269 272 276 278 281 284 287 290 291 293 295 296 296 295 296 299 302 303 304 304 304 305 305 306 307 307 306 305 305 304 303 303 302 301 302 302 302 302 300 299 299
265 267 270 273 276 278 279 282 285 288 289 290 292 293 292 293 295 296 298 299 301 301 302 304 304 304 304 304 304 304 304 303 302 301 300 300 300 300 300 300 299 298 298
265 269 271 274 277 279 279 281 283 285 286 288 290 290 290 292 293 294 295 297 298 299 300 301 301 300 301 302 303 303 302 302 301 300 299 299 298 298 298 298 299 298 297
268 271 274 276 277 278 279 281 282 283 285 287 288 289 289 289 291 293 293 294 294 296 297 299 300 300 301 302 302 301 301 301 300 298 298 297 296 296 297 296 296 296 296
269 271 273 275 276 278 279 280 281 282 285 287 287 287 288 289 291 292 293 293 293 294 295 296 297 297 299 300 300 299 299 299 299 298 297 296 295 295 295 295 295 294 294
268 269 271 273 275 276 278 279 280 281 283 284 285 285 287 288 288 290 291 292 292 292 292 293 294 296 297 298 298 297 298 299 300 300 299 297 296 295 294 294 294 293 292
268 269 270 272 274 275 277 278 279 280 281 282 284 284 285 286 286 288 289 290 292 292 291 292 294 296 296 296 297 297 298 298 299 298 297 296 295 293 293 293 293 293 293
270 271 272 272 272 274 276 277 278 280 281 282 282 282 283 284 286 287 288 289 289 291 293 293 294 295 295 296 297 298 298 298 298 297 296 295 294 294 293 293 292 293 294
272 273 273 275 275 274 275 277 278 279 280 281 282 282 284 285 286 286 288 289 290 292 293 294 294 294 295 296 296 296 297 297 297 296 294 293 293 293 293 291 292 293 294
274 275 276 277 278 278 276 277 279 280 281 282 283 284 284 284 285 286 287 288 290 291 292 292 293 293 293 294 294 294 294 295 296 294 292 290 291 292 292 291 291 292 293
276 277 278 278 278 279 281 281 280 281 282 282 284 284 284 284 285 286 286 287 288 290 292 293 292 292 292 291 292 292 293 293 293 293 292 290 290 290 291 290 290 292 292
276 276 277 278 278 280 282 282 281 282 283 283 283 283 283 284 285 286 286 286 288 290 291 290 290 290 290 289 290 291 292 292 292 291 291 291 290 290 291 290 291 292 292
278 278 278 279 280 281 282 282 282 283 283 282 282 282 283 284 284 285 287 288 289 291 291 290 289 289 288 287 289 290 291 292 293 293 292 291 290 290 290 291 291 291 292
Height
5905 5904 5903 5902 5901 5900 5899 5898 5897 5896 5895 5894 5893 5892 5890 5888 5886 5885 5883 5881 5879 5877 5875 5873 5871 5868 5866 5863 5860 5858 5855 5853 5850 5848 5845 5843 5840 5838 5835 5833 5831 5829 5827
5904 5903 5902 5902 5901 5900 5899 5897 5896 5895 5894 5893 5892 5890 5889 5887 5885 5883 5881 5879 5877 5875 5873 5871 5868 5866 5863 5860 5858 5855 5852 5850 5847 5844 5842 5839 5837 5834 5832 5830 5827 5825 5823
5902 5902 5901 5900 5900 5899 5898 5897 5895 5894 5892 5891 5890 5888 5887 5885 5883 5881 5879 5877 5875 5873 5871 5868 5866 5863 5860 5858 5855 5852 5849 5846 5844 5841 5838 5836 5833 5831 5828 5826 5824 5821 5819
5901 5900 5900 5899 5898 5897 5896 5895 5894 5892 5891 5889 5888 5886 5885 5883 5881 5879 5877 5875 5872 5870 5868 5865 5863 5860 5857 5854 5851 5848 5845 5843 5840 5837 5835 5832 5829 5827 5824 5822 5820 5817 5815
5899 5898 5898 5897 5896 5895 5894 5893 5892 5891 5889 5887 5886 5884 5882 5880 5878 5876 5874 5872 5869 5867 5864 5862 5859 5856 5853 5851 5848 5845 5842 5839 5836 5833 5830 5828 5825 5822 5820 5817 5815 5813 5810
5896 5895 5895 5894 5894 5893 5892 5891 5890 5888 5887 5885 5883 5881 5879 5877 5875 5873 5871 5868 5866 5864 5861 5858 5855 5852 5849 5847 5844 5841 5838 5835 5831 5829 5826 5823 5820 5817 5814 5812 5810 5807 5805
5893 5892 5892 5892 5891 5890 5889 5888 5886 5885 5883 5882 5880 5878 5876 5874 5872 5869 5867 5865 5862 5860 5857 5854 5851 5848 5845 5842 5839 5836 5833 5829 5827 5824 5820 5817 5815 5812 5809 5806 5804 5802 5800
5890 5889 5889 5888 5888 5887 5885 5884 5883 5882 5880 5878 5876 5874 5872 5870 5867 5865 5863 5860 5858 5855 5852 5849 5846 5843 5840 5837 5834 5830 5827 5824 5821 5818 5815 5812 5809 5806 5803 5801 5798 5796 5794
5886 5885 5885 5884 5884 5883 5882 5880 5879 5877 5876 5874 5872 5870 5868 5866 5863 5861 5858 5855 5853 5850 5847 5844 5841 5838 5835 5831 5828 5825 5821 5818 5815 5812 5809 5806 5803 5800 5797 5795 5792 5789 5787
5881 5880 5880 5879 5879 5878 5877 5876 5874 5873 5871 5869 5867 5865 5863 5861 5858 5856 5853 5851 5848 5845 5842 5839 5836 5832 5829 5825 5822 5819 5815 5812 5809 5805 5803 5800 5796 5793 5790 5788 5785 5783 5780
5875 5875 5875 5874 5874 5873 5872 5871 5869 5868 5866 5864 5862 5860 5858 5855 5853 5850 5848 5845 5842 5839 5836 5832 5829 5826 5823 5819 5816 5812 5809 5806 5802 5799 5796 5793 5790 5786 5783 5781 5778 5776 5773
5870 5870 5869 5868 5867 5867 5866 5864 5863 5861 5860 5858 5856 5854 5852 5849 5846 5844 5841 5838 5835 5832 5829 5826 5823 5819 5816 5813 5809 5806 5802 5799 5796 5792 5789 5786 5783 5779 5776 5773 5771 5768 5765
5863 5863 5863 5862 5861 5860 5859 5858 5856 5855 5853 5852 5849 5847 5845 5842 5840 5837 5835 5831 5828 5825 5822 5819 5816 5813 5809 5806 5802 5799 5795 5792 5789 5786 5782 5779 5776 5772 5769 5766 5763 5760 5757
5856 5856 5856 5855 5854 5853 5852 5850 5849 5848 5846 5844 5842 5839 5837 5835 5832 5830 5827 5824 5821 5818 5815 5812 5808 5805 5802 5798 5795 5791 5788 5784 5781 5778 5775 5772 5768 5765 5762 5758 5755 5752 5750
5848 5848 5848 5847 5846 5845 5844 5843 5841 5840 5838 5836 5834 5831 5829 5827 5825 5822 5819 5816 5813 5810 5807 5804 5801 5797 5794 5790 5787 5784 5780 5777 5773 5770 5767 5763 5760 5757 5753 5750 5747 5744 5741
5839 5839 5839 5839 5838 5837 5835 5834 5832 5831 5829 5827 5825 5822 5820 5818 5816 5813 5810 5807 5805 5802 5799 5796 5792 5789 5786 5782 5779 5775 5772 5768 5765 5761 5758 5754 5751 5748 5745 5742 5738 5735 5732
5830 5830 5830 5829 5829 5827 5826 5824 5823 5821 5819 5817 5815 5813 5811 5809 5806 5803 5800 5798 5795 5792 5790 5787 5784 5780 5777 5773 5770 5766 5763 5759 5755 5751 5748 5745 5741 5738 5735 5732 5729 5726 5723
5821 5821 5820 5820 5819 5817 5816 5815 5813 5811 5809 5807 5805 5803 5801 5799 5796 5793 5790 5787 5785 5782 5780 5777 5774 5771 5767 5764 5760 5757 5753 5749 5745 5741 5738 5735 5731 5728 5725 5722 5719 5716 5713
5811 5811 5810 5810 5808 5807 5806 5804 5802 5801 5799 5797 5795 5793 5791 5788 5786 5783 5780 5777 5774 5771 5769 5767 5764 5761 5757 5754 5750 5746 5743 5739 5735 5731 5728 5725 5721 5718 5715 5712 5709 5706 5703
5801 5800 5800 5799 5798 5796 5795 5793 5791 5790 5788 5786 5784 5782 5779 5776 5774 5772 5769 5767 5764 5761 5759 5756 5753 5750 5747 5743 5739 5736 5732 5729 5725 5722 5718 5715 5712 5708 5705 5702 5699 5696 5693
5789 5789 5789 5787 5785 5784 5783 5781 5779 5778 5776 5774 5773 5770 5767 5765 5762 5760 5758 5755 5753 5751 5748 5745 5742 5739 5735 5732 5729 5725 5722 5718 5715 5711 5708 5705 5702 5699 5696 5693 5690 5687 5683
5779 5778 5777 5775 5774 5772 5771 5769 5767 5766 5764 5762 5760 5758 5755 5753 5751 5749 5746 5744 5742 5739 5737 5734 5731 5728 5724 5721 5718 5714 5711 5708 5704 5701 5697 5694 5691 5688 5685 5682 5679 5676 5673
5768 5767 5766 5764 5763 5761 5759 5757 5755 5753 5752 5750 5748 5745 5743 5741 5738 5736 5734 5732 5730 5727 5724 5722 5719 5716 5713 5709 5706 5703 5700 5697 5693 5690 5686 5683 5681 5678 5675 5672 5669 5666 5663
5757 5756 5754 5752 5751 5749 5747 5745 5743 5741 5739 5737 5735 5733 5731 5729 5726 5724 5722 5720 5717 5714 5711 5709 5706 5703 5701 5697 5694 5691 5688 5685 5681 5679 5676 5672 5670 5667 5664 5661 5658 5655 5652
5746 5744 5742 5740 5738 5737 5735 5733 5731 5728 5726 5724 5722 5720 5718 5716 5714 5712 5709 5707 5704 5701 5699 5696 5694 5691 5688 5686 5682 5679 5676 5673 5670 5667 5664 5661 5658 5656 5653 5650 5647 5644 5641
5734 5732 5730 5728 5726 5724 5722 5721 5718 5716 5714 5712 5709 5708 5706 5704 5701 5699 5697 5695 5692 5689 5686 5684 5681 5679 5676 5673 5671 5668 5665 5662 5659 5656 5653 5650 5647 5644 5642 5639 5636 5633 5630